Year,Month,Day,Hour,Minute,Value (Times are PST for temperature in C)
2006,04,25,00,00,14.00
2006,04,25,00,01,14.00
2006,04,25,00,02,14.00
2006,04,25,00,03,14.00
2006,04,25,00,04,13.90
2006,04,25,00,05,13.90
2006,04,25,00,06,13.90
2006,04,25,00,07,13.90
2006,04,25,00,08,13.90
2006,04,25,00,09,13.90
2006,04,25,00,10,13.90
2006,04,25,00,11,13.80
2006,04,25,00,12,13.80
2006,04,25,00,13,13.80
2006,04,25,00,14,13.80
2006,04,25,00,15,13.70
2006,04,25,00,16,13.70
2006,04,25,00,17,13.70
2006,04,25,00,18,13.70
2006,04,25,00,19,13.70
2006,04,25,00,20,13.70
2006,04,25,00,21,13.70
2006,04,25,00,22,13.70
2006,04,25,00,23,13.70
2006,04,25,00,24,13.70
2006,04,25,00,25,13.80
2006,04,25,00,26,13.80
2006,04,25,00,27,13.70
2006,04,25,00,28,13.70
2006,04,25,00,29,13.70
2006,04,25,00,30,13.70
2006,04,25,00,31,13.70
2006,04,25,00,32,13.70
2006,04,25,00,33,13.70
2006,04,25,00,34,13.70
2006,04,25,00,35,13.70
2006,04,25,00,36,13.70
2006,04,25,00,37,13.70
2006,04,25,00,38,13.70
2006,04,25,00,39,13.70
2006,04,25,00,40,13.60
2006,04,25,00,41,13.60
2006,04,25,00,42,13.60
2006,04,25,00,43,13.60
2006,04,25,00,44,13.60
2006,04,25,00,45,13.60
2006,04,25,00,46,13.60
2006,04,25,00,47,13.50
2006,04,25,00,48,13.50
2006,04,25,00,49,13.50
2006,04,25,00,50,13.50
2006,04,25,00,51,13.40
2006,04,25,00,52,13.40
2006,04,25,00,53,13.40
2006,04,25,00,54,13.40
2006,04,25,00,55,13.30
2006,04,25,00,56,13.30
2006,04,25,00,57,13.30
2006,04,25,00,58,13.30
2006,04,25,00,59,13.30
2006,04,25,01,00,13.30
2006,04,25,01,01,13.30
2006,04,25,01,02,13.30
2006,04,25,01,03,13.20
2006,04,25,01,04,13.20
2006,04,25,01,05,13.20
2006,04,25,01,06,13.10
2006,04,25,01,07,13.10
2006,04,25,01,08,13.10
2006,04,25,01,09,13.10
2006,04,25,01,10,13.00
2006,04,25,01,11,13.00
2006,04,25,01,12,13.00
2006,04,25,01,13,13.00
2006,04,25,01,14,12.90
2006,04,25,01,15,12.90
2006,04,25,01,16,12.90
2006,04,25,01,17,12.90
2006,04,25,01,18,12.90
2006,04,25,01,19,12.80
2006,04,25,01,20,12.80
2006,04,25,01,21,12.80
2006,04,25,01,22,12.80
2006,04,25,01,23,12.80
2006,04,25,01,24,12.80
2006,04,25,01,25,12.80
2006,04,25,01,26,12.80
2006,04,25,01,27,12.80
2006,04,25,01,28,12.70
2006,04,25,01,29,12.70
2006,04,25,01,30,12.70
2006,04,25,01,31,12.60
2006,04,25,01,32,12.60
2006,04,25,01,33,12.60
2006,04,25,01,34,12.60
2006,04,25,01,35,12.50
2006,04,25,01,36,12.50
2006,04,25,01,37,12.50
2006,04,25,01,38,12.50
2006,04,25,01,39,12.50
2006,04,25,01,40,12.40
2006,04,25,01,41,12.40
2006,04,25,01,42,12.40
2006,04,25,01,43,12.30
2006,04,25,01,44,12.30
2006,04,25,01,45,12.30
2006,04,25,01,46,12.30
2006,04,25,01,47,12.30
2006,04,25,01,48,12.30
2006,04,25,01,49,12.30
2006,04,25,01,50,12.20
2006,04,25,01,51,12.20
2006,04,25,01,52,12.20
2006,04,25,01,53,12.20
2006,04,25,01,54,12.20
2006,04,25,01,55,12.20
2006,04,25,01,56,12.20
2006,04,25,01,57,12.20
2006,04,25,01,58,12.20
2006,04,25,01,59,12.20
2006,04,25,02,00,12.20
2006,04,25,02,01,12.20
2006,04,25,02,02,12.20
2006,04,25,02,03,12.20
2006,04,25,02,04,12.20
2006,04,25,02,05,12.20
2006,04,25,02,06,12.30
2006,04,25,02,07,12.30
2006,04,25,02,08,12.30
2006,04,25,02,09,12.30
2006,04,25,02,10,12.30
2006,04,25,02,11,12.30
2006,04,25,02,12,12.30
2006,04,25,02,13,12.30
2006,04,25,02,14,12.30
2006,04,25,02,15,12.30
2006,04,25,02,16,12.30
2006,04,25,02,17,12.30
2006,04,25,02,18,12.30
2006,04,25,02,19,12.30
2006,04,25,02,20,12.30
2006,04,25,02,21,12.30
2006,04,25,02,22,12.30
2006,04,25,02,23,12.20
2006,04,25,02,24,12.20
2006,04,25,02,25,12.20
2006,04,25,02,26,12.20
2006,04,25,02,27,12.20
2006,04,25,02,28,12.20
2006,04,25,02,29,12.20
2006,04,25,02,30,12.20
2006,04,25,02,31,12.20
2006,04,25,02,32,12.10
2006,04,25,02,33,12.10
2006,04,25,02,34,12.10
2006,04,25,02,35,12.10
2006,04,25,02,36,12.10
2006,04,25,02,37,12.10
2006,04,25,02,38,12.10
2006,04,25,02,39,12.10
2006,04,25,02,40,12.10
2006,04,25,02,41,12.10
2006,04,25,02,42,12.10
2006,04,25,02,43,12.10
2006,04,25,02,44,12.10
2006,04,25,02,45,12.20
2006,04,25,02,46,12.20
2006,04,25,02,47,12.20
2006,04,25,02,48,12.30
2006,04,25,02,49,12.30
2006,04,25,02,50,12.30
2006,04,25,02,51,12.30
2006,04,25,02,52,12.30
2006,04,25,02,53,12.30
2006,04,25,02,54,12.30
2006,04,25,02,55,12.30
2006,04,25,02,56,12.30
2006,04,25,02,57,12.30
2006,04,25,02,58,12.30
2006,04,25,02,59,12.30
2006,04,25,03,00,12.30
2006,04,25,03,01,12.30
2006,04,25,03,02,12.30
2006,04,25,03,03,12.30
2006,04,25,03,04,12.30
2006,04,25,03,05,12.30
2006,04,25,03,06,12.20
2006,04,25,03,07,12.20
2006,04,25,03,08,12.20
2006,04,25,03,09,12.20
2006,04,25,03,10,12.20
2006,04,25,03,11,12.20
2006,04,25,03,12,12.20
2006,04,25,03,13,12.20
2006,04,25,03,14,12.20
2006,04,25,03,15,12.20
2006,04,25,03,16,12.20
2006,04,25,03,17,12.20
2006,04,25,03,18,12.30
2006,04,25,03,19,12.30
2006,04,25,03,20,12.30
2006,04,25,03,21,12.30
2006,04,25,03,22,12.30
2006,04,25,03,23,12.20
2006,04,25,03,24,12.20
2006,04,25,03,25,12.20
2006,04,25,03,26,12.10
2006,04,25,03,27,12.10
2006,04,25,03,28,12.10
2006,04,25,03,29,12.00
2006,04,25,03,30,12.00
2006,04,25,03,31,12.00
2006,04,25,03,32,12.00
2006,04,25,03,33,12.00
2006,04,25,03,34,11.90
2006,04,25,03,35,11.90
2006,04,25,03,36,11.90
2006,04,25,03,37,11.80
2006,04,25,03,38,11.80
2006,04,25,03,39,11.80
2006,04,25,03,40,11.80
2006,04,25,03,41,11.80
2006,04,25,03,42,11.70
2006,04,25,03,43,11.70
2006,04,25,03,44,11.70
2006,04,25,03,45,11.70
2006,04,25,03,46,11.60
2006,04,25,03,47,11.60
2006,04,25,03,48,11.70
2006,04,25,03,49,11.70
2006,04,25,03,50,11.80
2006,04,25,03,51,11.80
2006,04,25,03,52,11.80
2006,04,25,03,53,11.80
2006,04,25,03,54,11.80
2006,04,25,03,55,11.80
2006,04,25,03,56,11.90
2006,04,25,03,57,11.90
2006,04,25,03,58,11.90
2006,04,25,03,59,11.90
2006,04,25,04,00,11.90
2006,04,25,04,01,11.90
2006,04,25,04,02,11.90
2006,04,25,04,03,11.90
2006,04,25,04,04,12.00
2006,04,25,04,05,12.00
2006,04,25,04,06,12.00
2006,04,25,04,07,12.00
2006,04,25,04,08,12.10
2006,04,25,04,09,12.10
2006,04,25,04,10,12.10
2006,04,25,04,11,12.10
2006,04,25,04,12,12.10
2006,04,25,04,13,12.20
2006,04,25,04,14,12.20
2006,04,25,04,15,12.20
2006,04,25,04,16,12.20
2006,04,25,04,17,12.20
2006,04,25,04,18,12.30
2006,04,25,04,19,12.30
2006,04,25,04,20,12.30
2006,04,25,04,21,12.30
2006,04,25,04,22,12.30
2006,04,25,04,23,12.20
2006,04,25,04,24,12.20
2006,04,25,04,25,12.20
2006,04,25,04,26,12.20
2006,04,25,04,27,12.20
2006,04,25,04,28,12.10
2006,04,25,04,29,12.20
2006,04,25,04,30,12.20
2006,04,25,04,31,12.20
2006,04,25,04,32,12.10
2006,04,25,04,33,12.10
2006,04,25,04,34,12.10
2006,04,25,04,35,12.10
2006,04,25,04,36,12.00
2006,04,25,04,37,12.00
2006,04,25,04,38,12.00
2006,04,25,04,39,12.00
2006,04,25,04,40,12.00
2006,04,25,04,41,12.00
2006,04,25,04,42,12.00
2006,04,25,04,43,12.00
2006,04,25,04,44,12.00
2006,04,25,04,45,12.00
2006,04,25,04,46,12.00
2006,04,25,04,47,12.00
2006,04,25,04,48,12.00
2006,04,25,04,49,12.00
2006,04,25,04,50,11.90
2006,04,25,04,51,11.90
2006,04,25,04,52,11.90
2006,04,25,04,53,11.80
2006,04,25,04,54,11.80
2006,04,25,04,55,11.80
2006,04,25,04,56,11.80
2006,04,25,04,57,11.80
2006,04,25,04,58,11.80
2006,04,25,04,59,11.80
2006,04,25,05,00,11.80
2006,04,25,05,01,11.80
2006,04,25,05,02,11.80
2006,04,25,05,03,11.70
2006,04,25,05,04,11.70
2006,04,25,05,05,11.70
2006,04,25,05,06,11.70
2006,04,25,05,07,11.70
2006,04,25,05,08,11.70
2006,04,25,05,09,11.70
2006,04,25,05,10,11.70
2006,04,25,05,11,11.70
2006,04,25,05,12,11.70
2006,04,25,05,13,11.60
2006,04,25,05,14,11.60
2006,04,25,05,15,11.60
2006,04,25,05,16,11.60
2006,04,25,05,17,11.60
2006,04,25,05,18,11.60
2006,04,25,05,19,11.60
2006,04,25,05,20,11.60
2006,04,25,05,21,11.60
2006,04,25,05,22,11.60
2006,04,25,05,23,11.60
2006,04,25,05,24,11.60
2006,04,25,05,25,11.60
2006,04,25,05,26,11.60
2006,04,25,05,27,11.60
2006,04,25,05,28,11.50
2006,04,25,05,29,11.40
2006,04,25,05,30,11.40
2006,04,25,05,31,11.40
2006,04,25,05,32,11.40
2006,04,25,05,33,11.40
2006,04,25,05,34,11.30
2006,04,25,05,35,11.30
2006,04,25,05,36,11.30
2006,04,25,05,37,11.30
2006,04,25,05,38,11.20
2006,04,25,05,39,11.20
2006,04,25,05,40,11.20
2006,04,25,05,41,11.10
2006,04,25,05,42,11.10
2006,04,25,05,43,11.10
2006,04,25,05,44,11.10
2006,04,25,05,45,11.10
2006,04,25,05,46,11.10
2006,04,25,05,47,11.00
2006,04,25,05,48,10.90
2006,04,25,05,49,10.90
2006,04,25,05,50,10.90
2006,04,25,05,51,10.90
2006,04,25,05,52,10.90
2006,04,25,05,53,10.90
2006,04,25,05,54,10.80
2006,04,25,05,55,10.70
2006,04,25,05,56,10.70
2006,04,25,05,57,10.60
2006,04,25,05,58,10.60
2006,04,25,05,59,10.60
2006,04,25,06,00,10.60
2006,04,25,06,01,10.60
2006,04,25,06,02,10.60
2006,04,25,06,03,10.50
2006,04,25,06,04,10.40
2006,04,25,06,05,10.40
2006,04,25,06,06,10.40
2006,04,25,06,07,10.40
2006,04,25,06,08,10.40
2006,04,25,06,09,10.40
2006,04,25,06,10,10.40
2006,04,25,06,11,10.30
2006,04,25,06,12,10.30
2006,04,25,06,13,10.20
2006,04,25,06,14,10.20
2006,04,25,06,15,10.10
2006,04,25,06,16,10.10
2006,04,25,06,17,10.10
2006,04,25,06,18,10.10
2006,04,25,06,19,10.00
2006,04,25,06,20,9.90
2006,04,25,06,21,9.90
2006,04,25,06,22,9.90
2006,04,25,06,23,9.80
2006,04,25,06,24,9.80
2006,04,25,06,25,9.70
2006,04,25,06,26,9.70
2006,04,25,06,27,9.70
2006,04,25,06,28,9.60
2006,04,25,06,29,9.60
2006,04,25,06,30,9.50
2006,04,25,06,31,9.50
2006,04,25,06,32,9.50
2006,04,25,06,33,9.50
2006,04,25,06,34,9.40
2006,04,25,06,35,9.40
2006,04,25,06,36,9.40
2006,04,25,06,37,9.30
2006,04,25,06,38,9.30
2006,04,25,06,39,9.30
2006,04,25,06,40,9.30
2006,04,25,06,41,9.20
2006,04,25,06,42,9.20
2006,04,25,06,43,9.20
2006,04,25,06,44,9.20
2006,04,25,06,45,9.20
2006,04,25,06,46,9.20
2006,04,25,06,47,9.20
2006,04,25,06,48,9.30
2006,04,25,06,49,9.30
2006,04,25,06,50,9.30
2006,04,25,06,51,9.30
2006,04,25,06,52,9.30
2006,04,25,06,53,9.30
2006,04,25,06,54,9.30
2006,04,25,06,55,9.30
2006,04,25,06,56,9.30
2006,04,25,06,57,9.40
2006,04,25,06,58,9.40
2006,04,25,06,59,9.40
2006,04,25,07,00,9.40
2006,04,25,07,01,9.40
2006,04,25,07,02,9.40
2006,04,25,07,03,9.40
2006,04,25,07,04,9.40
2006,04,25,07,05,9.50
2006,04,25,07,06,9.50
2006,04,25,07,07,9.50
2006,04,25,07,08,9.50
2006,04,25,07,09,9.60
2006,04,25,07,10,9.60
2006,04,25,07,11,9.60
2006,04,25,07,12,9.70
2006,04,25,07,13,9.70
2006,04,25,07,14,9.70
2006,04,25,07,15,9.70
2006,04,25,07,16,9.70
2006,04,25,07,17,9.70
2006,04,25,07,18,9.80
2006,04,25,07,19,9.80
2006,04,25,07,20,9.90
2006,04,25,07,21,9.90
2006,04,25,07,22,9.90
2006,04,25,07,23,10.00
2006,04,25,07,24,10.10
2006,04,25,07,25,10.10
2006,04,25,07,26,10.10
2006,04,25,07,27,10.10
2006,04,25,07,28,10.20
2006,04,25,07,29,10.20
2006,04,25,07,30,10.20
2006,04,25,07,31,10.20
2006,04,25,07,32,10.30
2006,04,25,07,33,10.30
2006,04,25,07,34,10.30
2006,04,25,07,35,10.40
2006,04,25,07,36,10.40
2006,04,25,07,37,10.40
2006,04,25,07,38,10.50
2006,04,25,07,39,10.60
2006,04,25,07,40,10.60
2006,04,25,07,41,10.70
2006,04,25,07,42,10.70
2006,04,25,07,43,10.80
2006,04,25,07,44,10.80
2006,04,25,07,45,10.90
2006,04,25,07,46,10.90
2006,04,25,07,47,11.00
2006,04,25,07,48,11.10
2006,04,25,07,49,11.20
2006,04,25,07,50,11.20
2006,04,25,07,51,11.20
2006,04,25,07,52,11.20
2006,04,25,07,53,11.20
2006,04,25,07,54,11.20
2006,04,25,07,55,11.20
2006,04,25,07,56,11.20
2006,04,25,07,57,11.20
2006,04,25,07,58,11.30
2006,04,25,07,59,11.30
2006,04,25,08,00,11.40
2006,04,25,08,01,11.40
2006,04,25,08,02,11.40
2006,04,25,08,03,11.40
2006,04,25,08,04,11.40
2006,04,25,08,05,11.40
2006,04,25,08,06,11.60
2006,04,25,08,07,11.60
2006,04,25,08,08,11.60
2006,04,25,08,09,11.60
2006,04,25,08,10,11.60
2006,04,25,08,11,11.60
2006,04,25,08,12,11.60
2006,04,25,08,13,11.70
2006,04,25,08,14,11.70
2006,04,25,08,15,11.70
2006,04,25,08,16,11.70
2006,04,25,08,17,11.70
2006,04,25,08,18,11.80
2006,04,25,08,19,11.80
2006,04,25,08,20,11.90
2006,04,25,08,21,11.90
2006,04,25,08,22,11.90
2006,04,25,08,23,12.00
2006,04,25,08,24,12.00
2006,04,25,08,25,12.10
2006,04,25,08,26,12.10
2006,04,25,08,27,12.20
2006,04,25,08,28,12.30
2006,04,25,08,29,12.30
2006,04,25,08,30,12.30
2006,04,25,08,31,12.30
2006,04,25,08,32,12.40
2006,04,25,08,33,12.50
2006,04,25,08,34,12.60
2006,04,25,08,35,12.60
2006,04,25,08,36,12.70
2006,04,25,08,37,12.80
2006,04,25,08,39,13.10
2006,04,25,08,40,13.20
2006,04,25,08,41,13.30
2006,04,25,08,42,13.40
2006,04,25,08,43,13.50
2006,04,25,08,44,13.60
2006,04,25,08,45,13.70
2006,04,25,08,46,13.70
2006,04,25,08,47,13.80
2006,04,25,08,48,13.80
2006,04,25,08,49,13.70
2006,04,25,08,50,13.80
2006,04,25,08,51,13.90
2006,04,25,08,52,14.00
2006,04,25,08,53,14.10
2006,04,25,08,54,14.10
2006,04,25,08,55,14.00
2006,04,25,08,56,14.00
2006,04,25,08,57,13.90
2006,04,25,08,58,13.90
2006,04,25,08,59,13.90
2006,04,25,09,00,13.80
2006,04,25,09,01,13.90
2006,04,25,09,02,13.90
2006,04,25,09,03,14.00
2006,04,25,09,04,14.10
2006,04,25,09,05,14.10
2006,04,25,09,06,14.10
2006,04,25,09,07,14.00
2006,04,25,09,08,13.90
2006,04,25,09,09,13.90
2006,04,25,09,10,13.90
2006,04,25,09,11,14.00
2006,04,25,09,12,14.10
2006,04,25,09,13,14.20
2006,04,25,09,14,14.30
2006,04,25,09,15,14.50
2006,04,25,09,16,14.60
2006,04,25,09,17,14.70
2006,04,25,09,18,14.80
2006,04,25,09,19,14.80
2006,04,25,09,20,14.80
2006,04,25,09,21,14.80
2006,04,25,09,22,14.80
2006,04,25,09,23,14.80
2006,04,25,09,24,14.80
2006,04,25,09,25,14.80
2006,04,25,09,26,14.80
2006,04,25,09,27,14.80
2006,04,25,09,28,14.80
2006,04,25,09,29,14.80
2006,04,25,09,30,14.70
2006,04,25,09,31,14.70
2006,04,25,09,32,14.70
2006,04,25,09,33,14.60
2006,04,25,09,34,14.60
2006,04,25,09,35,14.40
2006,04,25,09,36,14.40
2006,04,25,09,37,14.40
2006,04,25,09,38,14.40
2006,04,25,09,39,14.40
2006,04,25,09,40,14.40
2006,04,25,09,41,14.50
2006,04,25,09,42,14.60
2006,04,25,09,43,14.80
2006,04,25,09,44,14.80
2006,04,25,09,45,14.80
2006,04,25,09,46,14.80
2006,04,25,09,47,14.70
2006,04,25,09,48,14.70
2006,04,25,09,49,14.60
2006,04,25,09,50,14.60
2006,04,25,09,51,14.60
2006,04,25,09,52,14.60
2006,04,25,09,53,14.60
2006,04,25,09,54,14.70
2006,04,25,09,55,14.70
2006,04,25,09,56,14.60
2006,04,25,09,57,14.50
2006,04,25,09,58,14.50
2006,04,25,09,59,14.60
2006,04,25,10,00,14.60
2006,04,25,10,01,14.60
2006,04,25,10,02,14.40
2006,04,25,10,03,14.30
2006,04,25,10,04,14.20
2006,04,25,10,05,14.20
2006,04,25,10,06,14.20
2006,04,25,10,07,14.20
2006,04,25,10,08,14.20
2006,04,25,10,09,14.20
2006,04,25,10,10,14.20
2006,04,25,10,11,14.20
2006,04,25,10,12,14.20
2006,04,25,10,13,14.10
2006,04,25,10,14,13.90
2006,04,25,10,15,13.80
2006,04,25,10,16,13.70
2006,04,25,10,17,13.70
2006,04,25,10,18,13.80
2006,04,25,10,19,13.90
2006,04,25,10,20,14.00
2006,04,25,10,21,14.20
2006,04,25,10,22,14.20
2006,04,25,10,23,14.20
2006,04,25,10,24,14.30
2006,04,25,10,25,14.40
2006,04,25,10,26,14.50
2006,04,25,10,27,14.60
2006,04,25,10,28,14.70
2006,04,25,10,29,14.60
2006,04,25,10,30,14.60
2006,04,25,10,31,14.60
2006,04,25,10,32,14.60
2006,04,25,10,33,14.60
2006,04,25,10,34,14.50
2006,04,25,10,35,14.60
2006,04,25,10,36,14.50
2006,04,25,10,37,14.60
2006,04,25,10,38,14.50
2006,04,25,10,39,14.50
2006,04,25,10,40,14.60
2006,04,25,10,41,14.50
2006,04,25,10,42,14.40
2006,04,25,10,43,14.50
2006,04,25,10,44,14.50
2006,04,25,10,45,14.60
2006,04,25,10,46,14.60
2006,04,25,10,47,14.60
2006,04,25,10,48,14.70
2006,04,25,10,49,14.80
2006,04,25,10,50,14.80
2006,04,25,10,51,14.70
2006,04,25,10,52,14.80
2006,04,25,10,53,14.80
2006,04,25,10,54,14.70
2006,04,25,10,55,14.70
2006,04,25,10,56,14.60
2006,04,25,10,57,14.50
2006,04,25,10,58,14.60
2006,04,25,10,59,14.70
2006,04,25,11,00,14.70
2006,04,25,11,01,14.80
2006,04,25,11,02,14.90
2006,04,25,11,03,14.80
2006,04,25,11,04,14.70
2006,04,25,11,05,14.60
2006,04,25,11,06,14.50
2006,04,25,11,07,14.40
2006,04,25,11,08,14.50
2006,04,25,11,09,14.60
2006,04,25,11,10,14.80
2006,04,25,11,11,14.90
2006,04,25,11,12,15.00
2006,04,25,11,13,15.10
2006,04,25,11,14,15.30
2006,04,25,11,15,15.40
2006,04,25,11,16,15.50
2006,04,25,11,17,15.50
2006,04,25,11,18,15.40
2006,04,25,11,19,15.50
2006,04,25,11,20,15.50
2006,04,25,11,21,15.60
2006,04,25,11,22,15.70
2006,04,25,11,23,15.70
2006,04,25,11,24,15.70
2006,04,25,11,25,15.70
2006,04,25,11,26,15.70
2006,04,25,11,27,15.80
2006,04,25,11,28,15.90
2006,04,25,11,29,16.00
2006,04,25,11,30,16.10
2006,04,25,11,31,16.20
2006,04,25,11,32,16.20
2006,04,25,11,33,16.30
2006,04,25,11,34,16.40
2006,04,25,11,35,16.40
2006,04,25,11,36,16.40
2006,04,25,11,37,16.40
2006,04,25,11,38,16.40
2006,04,25,11,39,16.40
2006,04,25,11,40,16.60
2006,04,25,11,41,16.60
2006,04,25,11,42,16.60
2006,04,25,11,43,16.70
2006,04,25,11,44,16.70
2006,04,25,11,45,16.80
2006,04,25,11,46,16.90
2006,04,25,11,47,17.00
2006,04,25,11,48,17.00
2006,04,25,11,49,17.00
2006,04,25,11,50,16.90
2006,04,25,11,51,16.90
2006,04,25,11,52,16.90
2006,04,25,11,53,16.90
2006,04,25,11,54,16.90
2006,04,25,11,55,16.90
2006,04,25,11,56,16.90
2006,04,25,11,57,16.90
2006,04,25,11,58,16.90
2006,04,25,11,59,16.80
2006,04,25,12,00,16.80
2006,04,25,12,01,16.70
2006,04,25,12,02,16.40
2006,04,25,12,03,16.30
2006,04,25,12,04,16.30
2006,04,25,12,05,16.30
2006,04,25,12,06,16.40
2006,04,25,12,07,16.40
2006,04,25,12,08,16.40
2006,04,25,12,09,16.60
2006,04,25,12,10,16.70
2006,04,25,12,11,16.70
2006,04,25,12,12,16.70
2006,04,25,12,13,16.90
2006,04,25,12,14,16.70
2006,04,25,12,15,16.60
2006,04,25,12,16,16.60
2006,04,25,12,17,16.40
2006,04,25,12,18,16.40
2006,04,25,12,19,16.60
2006,04,25,12,20,16.70
2006,04,25,12,21,16.90
2006,04,25,12,22,17.00
2006,04,25,12,23,17.10
2006,04,25,12,24,17.20
2006,04,25,12,25,17.20
2006,04,25,12,26,17.20
2006,04,25,12,27,17.20
2006,04,25,12,28,17.20
2006,04,25,12,29,17.30
2006,04,25,12,30,17.20
2006,04,25,12,31,17.30
2006,04,25,12,32,17.30
2006,04,25,12,33,17.30
2006,04,25,12,34,17.30
2006,04,25,12,35,17.30
2006,04,25,12,36,17.40
2006,04,25,12,37,17.40
2006,04,25,12,38,17.40
2006,04,25,12,39,17.50
2006,04,25,12,40,17.50
2006,04,25,12,41,17.30
2006,04,25,12,42,17.20
2006,04,25,12,43,17.10
2006,04,25,12,44,17.10
2006,04,25,12,45,17.20
2006,04,25,12,46,17.20
2006,04,25,12,47,17.30
2006,04,25,12,48,17.30
2006,04,25,12,49,17.40
2006,04,25,12,50,17.50
2006,04,25,12,51,17.50
2006,04,25,12,52,17.50
2006,04,25,12,53,17.60
2006,04,25,12,54,17.60
2006,04,25,12,55,17.60
2006,04,25,12,56,17.60
2006,04,25,12,57,17.70
2006,04,25,12,58,17.70
2006,04,25,12,59,17.60
2006,04,25,13,00,17.60
2006,04,25,13,01,17.60
2006,04,25,13,02,17.60
2006,04,25,13,03,17.50
2006,04,25,13,04,17.40
2006,04,25,13,05,17.40
2006,04,25,13,06,17.40
2006,04,25,13,07,17.50
2006,04,25,13,08,17.60
2006,04,25,13,09,17.70
2006,04,25,13,10,17.80
2006,04,25,13,11,17.90
2006,04,25,13,12,17.90
2006,04,25,13,13,17.90
2006,04,25,13,14,17.90
2006,04,25,13,15,18.00
2006,04,25,13,16,18.10
2006,04,25,13,17,18.20
2006,04,25,13,18,18.20
2006,04,25,13,19,18.30
2006,04,25,13,20,18.30
2006,04,25,13,21,18.30
2006,04,25,13,22,18.30
2006,04,25,13,23,18.30
2006,04,25,13,24,18.20
2006,04,25,13,25,18.20
2006,04,25,13,26,18.30
2006,04,25,13,27,18.20
2006,04,25,13,28,18.20
2006,04,25,13,29,18.30
2006,04,25,13,30,18.40
2006,04,25,13,31,18.30
2006,04,25,13,32,18.20
2006,04,25,13,33,17.90
2006,04,25,13,34,17.70
2006,04,25,13,35,17.70
2006,04,25,13,36,17.70
2006,04,25,13,37,17.70
2006,04,25,13,38,17.80
2006,04,25,13,39,17.80
2006,04,25,13,40,17.70
2006,04,25,13,41,17.80
2006,04,25,13,42,17.90
2006,04,25,13,43,17.90
2006,04,25,13,44,18.10
2006,04,25,13,45,18.20
2006,04,25,13,46,18.20
2006,04,25,13,47,18.20
2006,04,25,13,48,18.30
2006,04,25,13,49,18.20
2006,04,25,13,50,17.90
2006,04,25,13,51,17.90
2006,04,25,13,52,17.90
2006,04,25,13,53,18.00
2006,04,25,13,54,18.10
2006,04,25,13,55,18.20
2006,04,25,13,56,18.20
2006,04,25,13,57,18.30
2006,04,25,13,58,18.30
2006,04,25,13,59,18.30
2006,04,25,14,00,18.30
2006,04,25,14,01,18.40
2006,04,25,14,02,18.60
2006,04,25,14,03,18.60
2006,04,25,14,04,18.70
2006,04,25,14,05,18.70
2006,04,25,14,06,18.60
2006,04,25,14,07,18.40
2006,04,25,14,08,18.30
2006,04,25,14,09,18.40
2006,04,25,14,10,18.50
2006,04,25,14,11,18.50
2006,04,25,14,12,18.50
2006,04,25,14,13,18.40
2006,04,25,14,14,18.40
2006,04,25,14,15,18.10
2006,04,25,14,16,18.10
2006,04,25,14,17,18.10
2006,04,25,14,18,18.10
2006,04,25,14,19,18.10
2006,04,25,14,20,18.00
2006,04,25,14,21,18.00
2006,04,25,14,22,18.10
2006,04,25,14,23,18.20
2006,04,25,14,24,18.20
2006,04,25,14,25,18.20
2006,04,25,14,26,18.20
2006,04,25,14,27,18.30
2006,04,25,14,28,18.30
2006,04,25,14,29,18.30
2006,04,25,14,30,18.20
2006,04,25,14,31,18.20
2006,04,25,14,32,18.20
2006,04,25,14,33,18.30
2006,04,25,14,34,18.30
2006,04,25,14,35,18.30
2006,04,25,14,36,18.30
2006,04,25,14,37,18.30
2006,04,25,14,38,18.30
2006,04,25,14,39,18.30
2006,04,25,14,40,18.30
2006,04,25,14,41,18.40
2006,04,25,14,42,18.40
2006,04,25,14,43,18.50
2006,04,25,14,44,18.50
2006,04,25,14,45,18.50
2006,04,25,14,46,18.50
2006,04,25,14,47,18.50
2006,04,25,14,48,18.50
2006,04,25,14,49,18.50
2006,04,25,14,50,18.60
2006,04,25,14,51,18.60
2006,04,25,14,52,18.70
2006,04,25,14,53,18.80
2006,04,25,14,54,18.80
2006,04,25,14,55,18.90
2006,04,25,14,56,18.90
2006,04,25,14,57,18.90
2006,04,25,14,58,18.90
2006,04,25,14,59,18.70
2006,04,25,15,00,18.60
2006,04,25,15,01,18.60
2006,04,25,15,02,18.70
2006,04,25,15,03,18.80
2006,04,25,15,04,18.90
2006,04,25,15,05,18.80
2006,04,25,15,06,18.80
2006,04,25,15,07,18.80
2006,04,25,15,08,18.80
2006,04,25,15,09,18.90
2006,04,25,15,10,18.90
2006,04,25,15,11,18.90
2006,04,25,15,12,18.90
2006,04,25,15,13,19.00
2006,04,25,15,14,19.10
2006,04,25,15,15,19.00
2006,04,25,15,16,18.80
2006,04,25,15,17,18.80
2006,04,25,15,18,18.70
2006,04,25,15,19,18.70
2006,04,25,15,20,18.70
2006,04,25,15,21,18.90
2006,04,25,15,22,19.00
2006,04,25,15,23,19.10
2006,04,25,15,24,19.00
2006,04,25,15,25,18.90
2006,04,25,15,26,18.90
2006,04,25,15,27,18.80
2006,04,25,15,28,18.70
2006,04,25,15,29,18.70
2006,04,25,15,30,18.80
2006,04,25,15,31,18.80
2006,04,25,15,32,18.90
2006,04,25,15,33,18.90
2006,04,25,15,34,19.00
2006,04,25,15,35,19.10
2006,04,25,15,36,19.10
2006,04,25,15,37,19.20
2006,04,25,15,38,19.10
2006,04,25,15,39,19.10
2006,04,25,15,40,19.10
2006,04,25,15,41,19.10
2006,04,25,15,42,19.20
2006,04,25,15,43,19.20
2006,04,25,15,44,19.10
2006,04,25,15,45,18.90
2006,04,25,15,46,18.90
2006,04,25,15,47,18.90
2006,04,25,15,48,18.90
2006,04,25,15,49,18.90
2006,04,25,15,50,18.90
2006,04,25,15,51,18.90
2006,04,25,15,52,18.80
2006,04,25,15,53,18.80
2006,04,25,15,54,18.90
2006,04,25,15,55,18.90
2006,04,25,15,56,18.90
2006,04,25,15,57,18.70
2006,04,25,15,58,18.60
2006,04,25,15,59,18.60
2006,04,25,16,00,18.40
2006,04,25,16,01,18.30
2006,04,25,16,02,18.30
2006,04,25,16,03,18.20
2006,04,25,16,04,18.10
2006,04,25,16,05,18.00
2006,04,25,16,06,18.00
2006,04,25,16,07,18.10
2006,04,25,16,08,18.00
2006,04,25,16,09,17.90
2006,04,25,16,10,17.90
2006,04,25,16,11,17.90
2006,04,25,16,12,18.00
2006,04,25,16,13,18.20
2006,04,25,16,14,18.20
2006,04,25,16,15,18.20
2006,04,25,16,16,18.20
2006,04,25,16,17,18.20
2006,04,25,16,18,18.20
2006,04,25,16,19,18.20
2006,04,25,16,20,18.20
2006,04,25,16,21,18.20
2006,04,25,16,22,18.20
2006,04,25,16,23,18.20
2006,04,25,16,24,18.30
2006,04,25,16,25,18.30
2006,04,25,16,26,18.40
2006,04,25,16,27,18.30
2006,04,25,16,28,18.20
2006,04,25,16,29,18.10
2006,04,25,16,30,18.10
2006,04,25,16,31,18.20
2006,04,25,16,32,18.20
2006,04,25,16,33,18.20
2006,04,25,16,34,18.10
2006,04,25,16,35,18.10
2006,04,25,16,36,18.10
2006,04,25,16,37,17.90
2006,04,25,16,38,17.80
2006,04,25,16,39,17.70
2006,04,25,16,40,17.60
2006,04,25,16,41,17.60
2006,04,25,16,42,17.60
2006,04,25,16,43,17.60
2006,04,25,16,44,17.50
2006,04,25,16,45,17.40
2006,04,25,16,46,17.30
2006,04,25,16,47,17.20
2006,04,25,16,48,17.10
2006,04,25,16,49,17.10
2006,04,25,16,50,17.10
2006,04,25,16,51,17.00
2006,04,25,16,52,16.90
2006,04,25,16,53,16.90
2006,04,25,16,54,16.90
2006,04,25,16,55,16.90
2006,04,25,16,56,17.00
2006,04,25,16,57,17.10
2006,04,25,16,58,17.10
2006,04,25,16,59,17.20
2006,04,25,17,00,17.30
2006,04,25,17,01,17.30
2006,04,25,17,02,17.30
2006,04,25,17,03,17.20
2006,04,25,17,04,17.00
2006,04,25,17,05,16.80
2006,04,25,17,06,16.70
2006,04,25,17,07,16.60
2006,04,25,17,08,16.60
2006,04,25,17,09,16.40
2006,04,25,17,10,16.50
2006,04,25,17,11,16.60
2006,04,25,17,12,16.80
2006,04,25,17,13,16.80
2006,04,25,17,14,16.80
2006,04,25,17,15,16.80
2006,04,25,17,16,16.70
2006,04,25,17,17,16.70
2006,04,25,17,18,16.50
2006,04,25,17,19,16.40
2006,04,25,17,20,16.50
2006,04,25,17,21,16.60
2006,04,25,17,22,16.60
2006,04,25,17,23,16.70